ANE1OP LEMD-LEXJ

Flight info

Callsign ANE1OP
Flight time N/A
Altitude 26000
Route SIE N865 UNGAS/N0365F240 Y753 EMANU
Aircraft CRJ9/M-SDFGIRWY/S

Departure

Time 2026-05-05 14:53
Airport Adolfo Suárez Madrid–Barajas Airport (LEMD)

Arrival

Time N/A
Airport Seve Ballesteros-Santander Airport (LEXJ)
Time Latitude Longitude Altitude Speed Heading
2026-05-05 14:40 40.49705 -3.58914 1979 ft 0 kts 180°
2026-05-05 14:43 40.49701 -3.58912 1982 ft 2 kts 156°
2026-05-05 14:44 40.49670 -3.58869 1979 ft 10 kts 108°
2026-05-05 14:44 40.49655 -3.58751 1980 ft 16 kts 95°
2026-05-05 14:44 40.49655 -3.58572 1979 ft 18 kts 90°
2026-05-05 14:44 40.49654 -3.58433 1979 ft 18 kts 90°
2026-05-05 14:45 40.49655 -3.58237 1979 ft 25 kts 87°
2026-05-05 14:45 40.49656 -3.58170 1979 ft 0 kts 89°
2026-05-05 14:50 40.49656 -3.58153 1979 ft 3 kts 94°
2026-05-05 14:50 40.49647 -3.58105 1979 ft 12 kts 119°
2026-05-05 14:50 40.49562 -3.58066 1981 ft 15 kts 178°
2026-05-05 14:50 40.49449 -3.58065 1979 ft 18 kts 179°
2026-05-05 14:51 40.49318 -3.58063 1979 ft 20 kts 176°
2026-05-05 14:51 40.49243 -3.57946 1980 ft 18 kts 99°
2026-05-05 14:51 40.49246 -3.57783 1979 ft 18 kts 89°
2026-05-05 14:51 40.49257 -3.57618 1982 ft 18 kts 71°
2026-05-05 14:52 40.49337 -3.57494 1980 ft 18 kts 28°
2026-05-05 14:52 40.49629 -3.57468 1979 ft 80 kts
2026-05-05 14:52 40.50430 -3.57473 1979 ft 147 kts
2026-05-05 14:52 40.51565 -3.57426 2330 ft 172 kts
2026-05-05 14:53 40.52816 -3.57316 2907 ft 187 kts 359°